User: anonymous
Location: Unspecified
(0.0000°N, 0.0000°E)
Time: 18:41:29
(UTC+02:00)
Language:

Delta 168 - Orbit

View from above orbital plane
View from above orbital plane
View from above satellite
View from above satellite

Ground track
Ground track

The orbit data is extracted from the following two-line orbital elements,

1 14051U 83041B   14243.84109267  .00004174  00000-0  40360-3 0  5918
2 14051 025.3326 019.6361 1128556 069.9824 084.0160 13.01379092444934
Epoch (UTC): 31 August 2014 20:11:10
Eccentricity: 0.1128556
inclination: 25.3326°
perigee height: 395 km
apogee height: 2118 km
right ascension of ascending node: 19.6361°
argument of perigee: 69.9824°
revolutions per day: 13.01379092
mean anomaly at epoch: 84.0160°
orbit number at epoch: 44493

The dashed part of the orbit path shows where the satellite is in the earth's shadow,  

DLR